EW2270 Weather Reports


Display with metric or nautical units.
time (UTC)temp
F
wind
direction
speed
MPH
gust
MPH
rain 1hr
in
rain 24hr
in
rain mn
in
humidity
%
barometer
mb
20260905174534 60 271 3.0 6.0 0.00 0.00 0.00 59 1016.9
20260905173032 61 243 3.0 6.0 0.00 0.00 0.00 62 1016.9
20260905171533 60 271 1.0 5.0 0.00 0.00 0.00 63 1016.9
20260905170028 59 262 3.0 5.0 0.00 0.00 0.00 64 1016.9
20260905164525 58 240 2.0 4.0 0.00 0.00 0.00 72 1016.7
20260905163021 57 203 2.0 5.0 0.00 0.00 0.00 76 1016.7
20260905161518 56 194 3.0 6.0 0.00 0.00 0.00 76 1016.7
20260905160016 55 237 1.0 4.0 0.00 0.00 0.00 79 1016.6
20260905154620 55 204 2.0 5.0 0.00 0.00 0.00 80 1016.5
20260905153014 54 240 0.0 2.0 0.00 0.00 0.00 80 1016.6
20260905151514 54 134 0.0 0.0 0.00 0.00 0.00 80 1016.7
20260905150013 54 134 0.0 1.0 0.00 0.00 0.00 79 1016.5
20260905144512 53 151 2.0 4.0 0.00 0.00 0.00 82 1016.7
20260905143017 51 113 0.0 2.0 0.00 0.00 0.00 82 1016.5
20260905141509 51 113 0.0 0.0 0.00 0.00 0.00 83 1016.3
20260905140009 50 113 0.0 2.0 0.00 0.00 0.00 83 1016.3
20260905134505 51 113 0.0 0.0 0.00 0.00 0.00 83 1016.3
20260905133004 50 113 1.0 2.0 0.00 0.00 0.00 84 1016.1
20260905131504 50 113 0.0 4.0 0.00 0.00 0.00 83 1015.9
20260905130001 50 310 0.0 2.0 0.00 0.00 0.00 82 1015.9
20260905124604 51 320 0.0 3.0 0.00 0.00 0.00 81 1015.8
20260905123100 53 193 4.0 6.0 0.00 0.00 0.00 78 1016.0
20260905121600 54 182 4.0 6.0 0.00 0.00 0.00 74 1016.0
20260905120057 53 156 3.0 8.0 0.00 0.00 0.00 78 1016.0
20260905114556 53 139 4.0 7.0 0.00 0.00 0.00 80 1016.0
20260905113055 54 137 3.0 7.0 0.00 0.00 0.00 76 1015.7
20260905111605 53 145 5.0 8.0 0.00 0.00 0.00 76 1015.8
20260905110058 52 172 3.0 4.0 0.00 0.00 0.00 80 1015.8
20260905104609 53 180 3.0 4.0 0.00 0.00 0.00 77 1015.4
20260905103049 53 141 0.0 1.0 0.00 0.00 0.00 75 1015.2
20260905101551 52 141 0.0 2.0 0.00 0.00 0.00 76 1015.2
20260905100047 52 139 2.0 3.0 0.00 0.00 0.00 77 1015.3
20260905094546 53 139 1.0 4.0 0.00 0.00 0.00 75 1015.0
20260905093045 53 129 1.0 5.0 0.00 0.00 0.00 75 1015.0
20260905091604 53 108 0.0 4.0 0.00 0.00 0.00 74 1015.1
20260905090044 55 108 3.0 4.0 0.00 0.00 0.00 71 1015.0
20260905084604 54 104 2.0 5.0 0.00 0.00 0.00 72 1015.1
20260905083141 55 248 0.0 4.0 0.00 0.00 0.00 70 1015.0
20260905081537 55 277 2.0 7.0 0.00 0.00 0.00 71 1015.1
20260905080040 51 205 0.0 2.0 0.00 0.00 0.00 78 1015.0
20260905074532 50 205 1.0 7.0 0.00 0.00 0.00 78 1014.9
20260905073033 51 18 4.0 6.0 0.00 0.00 0.00 76 1014.1
20260905071526 53 139 0.0 4.0 0.00 0.00 0.00 73 1014.0
20260905070042 51 139 1.0 4.0 0.00 0.00 0.00 76 1013.9
20260905064522 50 148 2.0 4.0 0.00 0.00 0.00 78 1013.9
20260905063020 49 162 2.0 4.0 0.00 0.00 0.00 77 1013.8
20260905061518 49 204 2.0 4.0 0.00 0.00 0.00 76 1013.6
20260905060018 51 204 1.0 3.0 0.00 0.00 0.00 75 1013.5
20260905054538 51 204 2.0 3.0 0.00 0.00 0.00 74 1013.3
20260905053016 51 204 1.0 4.0 0.00 0.00 0.00 73 1013.4
20260905051533 50 145 2.0 5.0 0.00 0.00 0.00 73 1013.3
20260905050014 51 152 0.0 2.0 0.00 0.00 0.00 70 1013.2
20260905044518 52 152 0.0 2.0 0.00 0.00 0.00 70 1013.2
20260905043012 54 155 0.0 6.0 0.00 0.00 0.00 66 1013.2
20260905041512 56 296 2.0 4.0 0.00 0.00 0.00 64 1013.2
20260905040011 57 250 0.0 2.0 0.00 0.00 0.00 60 1013.3
20260905034509 59 293 3.0 8.0 0.00 0.00 0.00 54 1013.1
20260905033018 58 68 4.0 6.0 0.00 0.00 0.00 56 1012.9
20260905031511 58 71 2.0 4.0 0.00 0.00 0.00 57 1012.7
20260905030008 59 332 2.0 4.0 0.00 0.00 0.00 53 1012.8
20260905024507 60 54 0.0 3.0 0.00 0.00 0.00 53 1012.7
20260905023007 62 59 5.0 9.0 0.00 0.00 0.00 48 1012.6
20260905021506 63 77 4.0 8.0 0.00 0.00 0.00 47 1012.5
20260905020011 65 56 5.0 11.0 0.00 0.00 0.00 44 1012.5
20260905014504 65 44 7.0 12.0 0.00 0.00 0.00 44 1012.5
20260905013004 65 64 5.0 10.0 0.00 0.00 0.00 44 1012.5
20260905011506 66 92 7.0 13.0 0.00 0.00 0.00 45 1012.4
20260905010003 65 81 10.0 20.0 0.00 0.00 0.00 45 1012.4
20260905004502 67 106 13.0 20.0 0.00 0.00 0.00 42 1012.1
20260905001559 70 4 8.0 16.0 0.00 0.00 0.00 37 1011.9
20260905000058 69 1 5.0 10.0 0.00 0.00 0.00 37 1011.8
20260904234556 69 345 4.0 11.0 0.00 0.00 0.00 37 1011.9
20260904233056 69 41 3.0 8.0 0.00 0.00 0.00 37 1011.9
20260904231555 68 34 2.0 10.0 0.00 0.00 0.00 40 1012.0
20260904230104 69 342 4.0 10.0 0.00 0.00 0.00 40 1012.2
20260904224607 69 30 2.0 6.0 0.00 0.00 0.00 38 1012.2
20260904223053 69 260 1.0 3.0 0.00 0.00 0.00 37 1012.2
20260904221552 70 13 1.0 6.0 0.00 0.00 0.00 36 1012.2
20260904220051 69 14 8.0 12.0 0.00 0.00 0.00 37 1012.3
20260904214555 69 308 5.0 9.0 0.00 0.00 0.00 39 1012.3
20260904213049 69 8 7.0 9.0 0.00 0.00 0.00 38 1012.3
20260904211552 68 23 5.0 10.0 0.00 0.00 0.00 38 1012.3
20260904210048 68 298 2.0 6.0 0.00 0.00 0.00 40 1012.1
20260904204543 67 292 3.0 7.0 0.00 0.00 0.00 41 1012.1
20260904203046 67 311 4.0 11.0 0.00 0.00 0.00 41 1012.2
20260904201545 67 27 7.0 10.0 0.00 0.00 0.00 42 1012.4
20260904200040 67 313 4.0 9.0 0.00 0.00 0.00 44 1012.3
20260904194537 66 335 4.0 9.0 0.00 0.00 0.00 44 1012.4
20260904193037 66 15 3.0 8.0 0.00 0.00 0.00 45 1012.6
20260904191534 65 352 5.0 8.0 0.00 0.00 0.00 45 1012.7
20260904190032 64 318 5.0 11.0 0.00 0.00 0.00 47 1012.8
20260904184530 64 336 3.0 10.0 0.00 0.00 0.00 47 1012.8
20260904183029 64 12 5.0 10.0 0.00 0.00 0.00 46 1013.0
20260904181527 63 30 5.0 9.0 0.00 0.00 0.00 48 1013.0
20260904180026 63 23 3.0 8.0 0.00 0.00 0.00 48 1013.1